Regional Weather Roundup
Issued by NWS

Current Version | Previous Version | Text Only | Print | Product List | Glossary On
Versions: 1 2 3 4 5 6 7 8 9 10 11 12 13 14 15 16 17 18 19 20 21 22 23 24 25 26 27 28 29 30 31 32 33 34 35 36 37 38 39 40 41 42 43 44 45 46 47 48 49 50
000
ASPQ40 PGUM 020214
RWRPQ
WEATHER ROUNDUP FOR THE MARIANAS AND MICRONESIA
NATIONAL WEATHER SERVICE TIYAN GU
1200 PM CHST THU JUL 02 2015

GUZ001>004-020300-
MARIANA ISLANDS-

CITY           SKY/WX    TMP DP  RH WIND       PRES   REMARKS
GUAM AIRPORT   MOSUNNY   88  75  66 NE16      29.79F HX  97
ANDERSEN AFB   PTSUNNY   84  75  74 N13       29.79F HX  92
ROTA AIRPORT   NOT AVBL
TINIAN AP      NOT AVBL
SAIPAN AP      MOSUNNY   90  75  62 NE12G20   29.78F HX 100

$$

PMZ161-020300-
REPUBLIC OF PALAU-

CITY           SKY/WX    TMP DP  RH WIND       PRES   REMARKS
KOROR AP       CLOUDY    84  75  74 SW15G22   29.84F HX  92
KOROR WSO      CLOUDY    86  75  70 W15       29.84F HX  95

$$

PMZ171>174-020300-
FEDERATED STATES OF MICRONESIA-

CITY           SKY/WX    TMP DP  RH WIND       PRES   REMARKS
YAP AIRPORT    CLOUDY    82  77  83 SW8       29.80F HX  91
CHUUK AP       NOT AVBL
POHNPEI AP     LGT RAIN  79  77  94 S8        29.73F
POHNPEI WSO    NOT AVBL
KOSRAE AP      NOT AVBL

$$

PMZ181-020300-
REPUBLIC OF THE MARSHALL ISLANDS-

CITY           SKY/WX    TMP DP  RH WIND       PRES   REMARKS
KWAJALEIN AP   MOSUNNY   82  75  78 E15       29.72F
MAJURO AP      NOT AVBL
MAJURO WSO     PTSUNNY   82  79  89 W14       29.65F HX  93

$$




USA.gov is the U.S. government's official web portal to all federal, state and local government web resources and services.